Time,TemperatureF,DewpointF,PressureIn,WindDirection,WindDirectionDegrees,WindSpeedMPH,WindSpeedGustMPH,Humidity,HourlyPrecipIn,Conditions,Clouds,dailyrainin,SoftwareType,DateUTC
2013-03-19 12:23:00,68.0,51.0,29.89,East,90,2.0,5.0,54,0.00,,,0.00,,2013-03-19 19:23:00,
2013-03-19 12:33:00,69.0,52.0,29.89,NE,45,2.0,6.0,55,0.00,,,0.00,,2013-03-19 19:33:00,
2013-03-19 12:53:00,69.0,52.0,29.90,NE,45,2.0,5.0,55,0.00,,,0.00,,2013-03-19 19:53:00,
2013-03-19 13:02:00,69.0,50.0,29.89,West,270,3.0,8.0,51,0.00,,,0.00,,2013-03-19 20:02:00,
2013-03-19 13:11:00,69.0,50.0,29.89,West,270,3.0,8.0,51,0.00,,,0.00,,2013-03-19 20:11:00,
2013-03-19 13:22:00,70.0,45.0,29.89,North,360,3.0,8.0,40,0.00,,,0.00,,2013-03-19 20:22:00,
2013-03-19 13:32:00,69.0,39.0,29.89,NE,45,4.0,8.0,33,0.00,,,0.00,,2013-03-19 20:32:00,
2013-03-19 13:42:00,69.0,39.0,29.89,NE,45,4.0,8.0,33,0.00,,,0.00,,2013-03-19 20:42:00,
2013-03-19 13:52:00,70.0,42.0,29.89,East,90,3.0,8.0,36,0.00,,,0.00,,2013-03-19 20:52:00,
2013-03-19 14:01:00,71.0,42.0,29.88,NW,315,3.0,7.0,35,0.00,,,0.00,,2013-03-19 21:01:00,
2013-03-19 14:11:00,71.0,42.0,29.88,NW,315,3.0,7.0,35,0.00,,,0.00,,2013-03-19 21:11:00,
2013-03-19 14:22:00,72.0,41.0,29.87,WNW,292,3.0,8.0,32,0.00,,,0.00,,2013-03-19 21:22:00,
2013-03-19 14:42:00,72.0,41.0,29.87,WNW,292,3.0,8.0,32,0.00,,,0.00,,2013-03-19 21:42:00,
2013-03-19 14:53:00,70.0,42.0,29.88,NE,45,4.0,10.0,36,0.00,,,0.00,,2013-03-19 21:53:00,
2013-03-19 15:02:00,69.0,40.0,29.88,North,360,6.0,11.0,35,0.00,,,0.00,,2013-03-19 22:02:00,
2013-03-19 15:12:00,69.0,40.0,29.88,North,360,6.0,11.0,35,0.00,,,0.00,,2013-03-19 22:12:00,
2013-03-19 15:22:00,65.0,47.0,29.88,NW,315,4.0,10.0,53,0.00,,,0.00,,2013-03-19 22:22:00,
2013-03-19 15:32:00,63.0,48.0,29.88,NE,45,3.0,8.0,59,0.00,,,0.00,,2013-03-19 22:32:00,
2013-03-19 15:42:00,63.0,48.0,29.88,NE,45,3.0,8.0,59,0.00,,,0.00,,2013-03-19 22:42:00,
2013-03-19 15:53:00,63.0,48.0,29.88,NE,45,3.0,8.0,59,0.00,,,0.00,,2013-03-19 22:53:00,
2013-03-19 16:02:00,64.0,47.0,29.88,East,90,2.0,7.0,54,0.00,,,0.00,,2013-03-19 23:02:00,
2013-03-19 16:12:00,64.0,47.0,29.88,East,90,2.0,7.0,54,0.00,,,0.00,,2013-03-19 23:12:00,
2013-03-19 16:22:00,64.0,47.0,29.88,East,90,2.0,7.0,54,0.00,,,0.00,,2013-03-19 23:22:00,
2013-03-19 16:32:00,64.0,47.0,29.89,NE,45,4.0,9.0,54,0.00,,,0.00,,2013-03-19 23:32:00,
2013-03-19 16:42:00,64.0,47.0,29.89,NE,45,4.0,9.0,54,0.00,,,0.00,,2013-03-19 23:42:00,
2013-03-19 16:52:00,61.0,48.0,29.90,NE,45,4.0,13.0,62,0.00,,,0.00,,2013-03-19 23:52:00,
2013-03-19 17:02:00,60.0,46.0,29.91,North,360,4.0,8.0,60,0.00,,,0.00,,2013-03-20 00:02:00,
2013-03-19 17:12:00,60.0,46.0,29.91,North,360,4.0,8.0,60,0.00,,,0.00,,2013-03-20 00:12:00,
2013-03-19 17:22:00,59.0,47.0,29.92,NE,45,4.0,8.0,65,0.00,,,0.00,,2013-03-20 00:22:00,
2013-03-19 17:32:00,56.0,49.0,29.93,WSW,248,3.0,9.0,78,0.00,,,0.00,,2013-03-20 00:32:00,
2013-03-19 17:42:00,56.0,49.0,29.93,WSW,248,3.0,9.0,78,0.00,,,0.00,,2013-03-20 00:42:00,
2013-03-19 17:52:00,56.0,49.0,29.93,WSW,248,3.0,9.0,78,0.00,,,0.00,,2013-03-20 00:52:00,
2013-03-19 18:02:00,56.0,48.0,29.93,East,90,1.0,5.0,75,0.00,,,0.00,,2013-03-20 01:02:00,
2013-03-19 18:11:00,56.0,48.0,29.93,East,90,1.0,5.0,75,0.00,,,0.00,,2013-03-20 01:11:00,
2013-03-19 18:22:00,56.0,47.0,29.93,East,90,2.0,6.0,71,0.00,,,0.00,,2013-03-20 01:22:00,
2013-03-19 18:32:00,57.0,48.0,29.94,NE,45,2.0,8.0,71,0.00,,,0.00,,2013-03-20 01:32:00,
2013-03-19 18:42:00,57.0,48.0,29.94,NE,45,2.0,8.0,71,0.00,,,0.00,,2013-03-20 01:42:00,
2013-03-19 18:52:00,55.0,48.0,29.95,NE,45,3.0,7.0,77,0.00,,,0.00,,2013-03-20 01:52:00,
2013-03-19 19:02:00,55.0,48.0,29.95,NE,45,3.0,7.0,77,0.00,,,0.00,,2013-03-20 02:02:00,
2013-03-19 19:11:00,55.0,48.0,29.95,NE,45,3.0,7.0,77,0.00,,,0.00,,2013-03-20 02:11:00,
2013-03-19 19:21:00,53.0,48.0,29.95,East,90,1.0,5.0,84,0.00,,,0.00,,2013-03-20 02:21:00,
2013-03-19 19:32:00,53.0,48.0,29.95,East,90,1.0,5.0,84,0.00,,,0.00,,2013-03-20 02:32:00,
2013-03-19 19:43:00,53.0,48.0,29.95,East,90,1.0,5.0,84,0.00,,,0.00,,2013-03-20 02:43:00,
2013-03-19 19:52:00,53.0,50.0,29.93,East,90,1.0,4.0,88,0.00,,,0.00,,2013-03-20 02:52:00,
2013-03-19 20:01:00,53.0,50.0,29.93,East,90,1.0,4.0,88,0.00,,,0.00,,2013-03-20 03:01:00,
2013-03-19 20:12:00,53.0,50.0,29.93,East,90,1.0,4.0,88,0.00,,,0.00,,2013-03-20 03:12:00,
2013-03-19 20:22:00,53.0,50.0,29.93,East,90,1.0,4.0,88,0.00,,,0.00,,2013-03-20 03:22:00,
2013-03-19 20:32:00,52.0,50.0,29.91,East,90,2.0,6.0,93,0.02,,,0.02,,2013-03-20 03:32:00,
2013-03-19 20:43:00,52.0,50.0,29.91,East,90,2.0,6.0,93,0.02,,,0.02,,2013-03-20 03:43:00,
2013-03-19 20:53:00,52.0,50.0,29.91,SE,135,2.0,4.0,94,0.02,,,0.02,,2013-03-20 03:53:00,
2013-03-19 21:02:00,52.0,50.0,29.91,SE,135,2.0,4.0,94,0.02,,,0.02,,2013-03-20 04:02:00,
2013-03-19 21:12:00,52.0,50.0,29.91,SE,135,2.0,4.0,94,0.02,,,0.02,,2013-03-20 04:12:00,
2013-03-19 21:22:00,52.0,51.0,29.91,East,90,2.0,5.0,97,0.01,,,0.02,,2013-03-20 04:22:00,
2013-03-19 21:32:00,52.0,51.0,29.91,East,90,2.0,8.0,98,0.00,,,0.02,,2013-03-20 04:32:00,
2013-03-19 21:43:00,52.0,51.0,29.91,East,90,2.0,8.0,98,0.00,,,0.02,,2013-03-20 04:43:00,
2013-03-19 21:52:00,53.0,52.0,29.91,East,90,3.0,9.0,97,0.00,,,0.02,,2013-03-20 04:52:00,
2013-03-19 22:02:00,53.0,52.0,29.91,East,90,3.0,9.0,97,0.00,,,0.02,,2013-03-20 05:02:00,
2013-03-19 22:12:00,53.0,52.0,29.90,SE,135,1.0,4.0,97,0.00,,,0.02,,2013-03-20 05:12:00,
2013-03-19 22:22:00,53.0,52.0,29.90,SE,135,1.0,4.0,97,0.00,,,0.02,,2013-03-20 05:22:00,
2013-03-19 22:32:00,53.0,52.0,29.90,SE,135,1.0,4.0,97,0.00,,,0.02,,2013-03-20 05:32:00,
2013-03-19 22:42:00,53.0,52.0,29.90,SE,135,1.0,4.0,97,0.00,,,0.02,,2013-03-20 05:42:00,
2013-03-19 22:52:00,53.0,52.0,29.90,East,90,0.0,2.0,96,0.00,,,0.02,,2013-03-20 05:52:00,
2013-03-19 23:02:00,53.0,52.0,29.90,East,90,1.0,4.0,97,0.00,,,0.02,,2013-03-20 06:02:00,
2013-03-19 23:12:00,53.0,52.0,29.90,East,90,1.0,4.0,97,0.00,,,0.02,,2013-03-20 06:12:00,
2013-03-19 23:21:00,53.0,52.0,29.90,East,90,0.0,3.0,97,0.00,,,0.02,,2013-03-20 06:21:00,
2013-03-19 23:31:00,53.0,52.0,29.90,East,90,0.0,3.0,97,0.00,,,0.02,,2013-03-20 06:31:00,
2013-03-19 23:42:00,53.0,52.0,29.90,East,90,0.0,3.0,97,0.00,,,0.02,,2013-03-20 06:42:00,
2013-03-19 23:52:00,53.0,52.0,29.90,East,90,0.0,3.0,97,0.00,,,0.02,,2013-03-20 06:52:00,